CW7164 Weather Reports


Display with metric or nautical units.
time (UTC)temp
F
wind
direction
speed
MPH
gust
MPH
rain 1hr
in
rain 24hr
in
rain mn
in
humidity
%
barometer
mb
20190523225330 74 279 2.0 8.0 0.00 0.21 0.17 47 1017.4
20190523225309 74 277 2.0 7.0 0.00 0.21 0.17 47 1017.5
20190523224430 74 247 2.0 7.0 0.00 0.21 0.17 46 1017.4
20190523224409 74 265 2.0 5.0 0.00 0.21 0.17 46 1017.5
20190523223530 74 248 1.0 4.0 0.00 0.21 0.17 48 1017.6
20190523223509 74 288 1.0 4.0 0.00 0.21 0.17 48 1017.6
20190523222630 74 267 2.0 6.0 0.00 0.21 0.17 46 1017.6
20190523222609 74 276 2.0 6.0 0.00 0.21 0.17 46 1017.6
20190523221732 75 285 3.0 8.0 0.00 0.21 0.17 47 1017.6
20190523221709 75 288 3.0 9.0 0.00 0.21 0.17 47 1017.6
20190523220830 76 262 2.0 10.0 0.00 0.21 0.17 47 1017.5
20190523220809 76 272 2.0 8.0 0.00 0.21 0.17 47 1017.5
20190523215930 76 269 3.0 10.0 0.00 0.21 0.17 46 1017.6
20190523215909 76 286 2.0 8.0 0.00 0.21 0.17 46 1017.5
20190523215031 76 282 2.0 5.0 0.00 0.21 0.17 47 1017.5
20190523215009 76 293 2.0 10.0 0.00 0.21 0.17 48 1017.4
20190523214130 76 291 2.0 10.0 0.00 0.21 0.17 45 1017.5
20190523214109 76 277 2.0 10.0 0.00 0.21 0.17 45 1017.5
20190523213230 76 251 1.0 8.0 0.00 0.21 0.17 47 1017.3
20190523213210 76 231 1.0 5.0 0.00 0.21 0.17 50 1017.3
20190523212330 76 270 2.0 8.0 0.00 0.21 0.17 46 1017.2
20190523212310 76 292 2.0 8.0 0.00 0.21 0.17 46 1017.3
20190523211430 76 208 1.0 8.0 0.00 0.21 0.17 49 1017.1
20190523211409 76 181 1.0 8.0 0.00 0.21 0.17 48 1017.2
20190523210530 75 285 3.0 12.0 0.00 0.21 0.17 47 1017.0
20190523210509 75 287 3.0 12.0 0.00 0.21 0.17 47 1017.1
20190523205630 75 266 3.0 14.0 0.00 0.21 0.17 46 1017.1
20190523205609 76 235 2.0 5.0 0.00 0.21 0.17 46 1017.2
20190523204731 76 244 2.0 9.0 0.00 0.21 0.17 48 1017.1
20190523204710 76 245 1.0 6.0 0.00 0.21 0.17 50 1017.1
20190523203830 75 267 2.0 7.0 0.00 0.21 0.17 48 1017.1
20190523203809 75 272 2.0 8.0 0.00 0.21 0.17 49 1017.0
20190523202930 75 254 2.0 9.0 0.00 0.21 0.17 50 1017.0
20190523202909 75 245 2.0 6.0 0.00 0.21 0.17 50 1017.1
20190523202030 75 248 2.0 10.0 0.00 0.21 0.17 49 1017.1
20190523202009 75 251 2.0 8.0 0.00 0.21 0.17 46 1017.1
20190523201131 75 287 3.0 15.0 0.00 0.21 0.17 49 1017.0
20190523201110 75 281 3.0 15.0 0.00 0.21 0.17 51 1017.1
20190523200231 75 291 2.0 10.0 0.00 0.21 0.17 48 1017.0
20190523200209 75 290 1.0 5.0 0.00 0.21 0.17 48 1017.2
20190523195330 74 286 2.0 9.0 0.00 0.21 0.17 53 1017.0
20190523195309 74 282 2.0 7.0 0.00 0.21 0.17 51 1017.1
20190523194431 74 291 2.0 11.0 0.00 0.21 0.17 52 1016.9
20190523194409 74 274 2.0 7.0 0.00 0.21 0.17 52 1016.9
20190523193531 73 270 2.0 11.0 0.00 0.21 0.17 51 1017.1
20190523193509 73 239 2.0 8.0 0.00 0.21 0.17 51 1017.1
20190523192631 73 279 3.0 8.0 0.00 0.21 0.17 49 1017.1
20190523192609 74 289 3.0 7.0 0.00 0.21 0.17 49 1017.1
20190523191731 74 271 2.0 10.0 0.00 0.21 0.17 49 1017.1
20190523191709 74 279 2.0 5.0 0.00 0.21 0.17 48 1017.1
20190523190830 74 295 2.0 8.0 0.00 0.21 0.17 48 1017.0
20190523190810 74 276 2.0 9.0 0.00 0.21 0.17 48 1017.0
20190523185930 74 255 2.0 7.0 0.00 0.21 0.17 49 1016.9
20190523185909 74 250 2.0 9.0 0.00 0.21 0.17 49 1017.0
20190523185031 74 274 2.0 5.0 0.00 0.21 0.17 51 1017.1
20190523185010 74 288 1.0 5.0 0.00 0.21 0.17 51 1017.1
20190523184130 73 179 1.0 4.0 0.00 0.21 0.17 53 1017.1
20190523184109 73 159 1.0 4.0 0.00 0.21 0.17 55 1017.2
20190523183230 72 241 2.0 7.0 0.00 0.21 0.17 55 1017.2
20190523183210 72 194 2.0 4.0 0.00 0.21 0.17 54 1017.2
20190523182331 72 220 2.0 8.0 0.00 0.21 0.17 51 1017.2
20190523182310 72 211 2.0 9.0 0.00 0.21 0.17 51 1017.4
20190523181431 72 230 2.0 8.0 0.00 0.21 0.17 54 1017.3
20190523181410 72 228 2.0 6.0 0.00 0.21 0.17 54 1017.3
20190523180531 72 174 2.0 7.0 0.00 0.21 0.17 51 1017.4
20190523180510 72 190 2.0 7.0 0.00 0.21 0.17 51 1017.4
20190523175631 72 255 2.0 6.0 0.00 0.21 0.17 52 1017.2
20190523175610 72 282 3.0 7.0 0.00 0.21 0.17 50 1017.1
20190523174731 72 303 2.0 8.0 0.00 0.21 0.17 50 1017.3
20190523174709 72 311 2.0 9.0 0.00 0.21 0.17 50 1017.2
20190523173831 71 261 2.0 8.0 0.00 0.21 0.17 51 1017.0
20190523173809 72 269 2.0 6.0 0.00 0.21 0.17 50 1017.1
20190523172931 71 264 2.0 7.0 0.00 0.21 0.17 53 1017.2
20190523172910 71 271 2.0 5.0 0.00 0.21 0.17 53 1017.2
20190523172030 71 259 2.0 9.0 0.00 0.21 0.17 54 1017.1
20190523172010 71 257 2.0 7.0 0.00 0.21 0.17 52 1017.1
20190523171131 70 247 2.0 9.0 0.00 0.21 0.17 52 1017.1
20190523171109 70 257 2.0 11.0 0.00 0.21 0.17 53 1017.1
20190523170231 70 254 2.0 7.0 0.00 0.21 0.17 55 1017.0
20190523170209 70 236 2.0 6.0 0.00 0.21 0.17 54 1016.9
20190523165330 70 247 2.0 10.0 0.00 0.21 0.17 52 1016.8
20190523165309 70 245 2.0 6.0 0.00 0.21 0.17 52 1016.8
20190523164430 70 248 2.0 9.0 0.00 0.21 0.17 52 1016.8
20190523164409 70 256 2.0 8.0 0.00 0.21 0.17 54 1016.8
20190523163530 70 178 2.0 8.0 0.00 0.21 0.17 52 1016.8
20190523163510 70 201 2.0 8.0 0.00 0.21 0.17 51 1016.8
20190523162630 70 250 2.0 7.0 0.00 0.21 0.17 54 1016.8
20190523162609 70 258 2.0 6.0 0.00 0.21 0.17 55 1016.8
20190523161731 70 277 2.0 8.0 0.00 0.21 0.17 53 1016.9
20190523161709 70 280 2.0 8.0 0.00 0.21 0.17 54 1016.9
20190523160831 69 198 1.0 9.0 0.00 0.21 0.17 53 1016.9
20190523160810 69 248 1.0 8.0 0.00 0.21 0.17 53 1016.9
20190523155930 69 288 2.0 10.0 0.00 0.21 0.17 53 1016.8
20190523155909 69 283 2.0 6.0 0.00 0.21 0.17 51 1016.8
20190523155031 69 277 2.0 6.0 0.00 0.21 0.17 54 1016.7
20190523155010 69 277 2.0 6.0 0.00 0.21 0.17 54 1016.8
20190523154131 68 278 3.0 12.0 0.00 0.21 0.17 50 1016.8
20190523154109 68 289 3.0 10.0 0.00 0.21 0.17 51 1016.7
20190523153231 68 258 3.0 10.0 0.00 0.21 0.17 50 1016.8
20190523153209 68 286 3.0 11.0 0.00 0.21 0.17 50 1016.7
20190523152330 68 261 3.0 8.0 0.00 0.21 0.17 54 1016.6
20190523152309 68 264 3.0 7.0 0.00 0.21 0.17 54 1016.6
20190523151432 68 245 3.0 7.0 0.00 0.21 0.17 52 1016.6
20190523151409 68 242 2.0 7.0 0.00 0.21 0.17 52 1016.6
20190523150530 68 253 2.0 7.0 0.00 0.21 0.17 53 1016.4
20190523150509 68 265 2.0 7.0 0.00 0.21 0.17 54 1016.4
20190523145630 68 300 2.0 8.0 0.00 0.21 0.17 55 1016.3
20190523145609 68 284 2.0 4.0 0.00 0.21 0.17 55 1016.3
20190523144730 67 274 2.0 6.0 0.00 0.21 0.17 56 1016.3
20190523144710 67 248 2.0 6.0 0.00 0.21 0.17 55 1016.4
20190523143831 67 291 2.0 9.0 0.00 0.21 0.17 58 1016.3
20190523143809 67 282 2.0 7.0 0.00 0.21 0.17 58 1016.3
20190523142931 67 302 2.0 9.0 0.00 0.21 0.17 56 1016.3
20190523142910 67 318 2.0 6.0 0.00 0.21 0.17 58 1016.3
20190523142031 66 299 3.0 11.0 0.00 0.21 0.17 59 1016.2
20190523142009 66 298 3.0 10.0 0.00 0.21 0.17 59 1016.3
20190523141130 66 273 2.0 8.0 0.00 0.21 0.17 62 1016.4
20190523141110 66 246 2.0 5.0 0.00 0.21 0.17 62 1016.4
20190523140231 66 228 2.0 5.0 0.00 0.21 0.17 62 1016.2
20190523140210 66 237 2.0 5.0 0.00 0.21 0.17 62 1016.3
20190523135330 65 306 2.0 6.0 0.00 0.21 0.17 63 1016.1
20190523135310 65 293 2.0 6.0 0.00 0.21 0.17 63 1016.1
20190523134431 64 275 2.0 6.0 0.00 0.21 0.17 65 1015.9
20190523134410 64 286 2.0 8.0 0.00 0.21 0.17 65 1016.0
20190523133531 64 237 1.0 4.0 0.00 0.21 0.17 70 1015.9
20190523133510 64 227 1.0 4.0 0.00 0.21 0.17 70 1015.9
20190523132610 63 272 2.0 5.0 0.00 0.21 0.17 72 1015.7
20190523131731 62 284 2.0 8.0 0.00 0.21 0.17 74 1015.6
20190523131710 62 290 2.0 7.0 0.00 0.21 0.17 74 1015.6
20190523130830 62 301 1.0 10.0 0.00 0.21 0.17 75 1015.5
20190523130810 62 300 1.0 6.0 0.00 0.21 0.17 77 1015.5
20190523125930 62 299 2.0 10.0 0.00 0.21 0.17 78 1015.7
20190523125910 62 297 2.0 6.0 0.00 0.21 0.17 78 1015.5
20190523125030 61 330 1.0 5.0 0.00 0.21 0.17 80 1015.4
20190523125009 61 340 1.0 3.0 0.00 0.21 0.17 80 1015.4
20190523124131 61 304 1.0 6.0 0.00 0.21 0.17 81 1015.1
20190523124110 61 300 1.0 6.0 0.00 0.21 0.17 81 1015.1
20190523123231 60 305 1.0 5.0 0.00 0.21 0.17 85 1015.1
20190523123209 60 301 1.0 4.0 0.00 0.21 0.17 85 1015.1
20190523122330 60 298 1.0 4.0 0.00 0.21 0.17 87 1014.8
20190523122309 60 308 1.0 3.0 0.00 0.21 0.17 87 1014.7
20190523121431 59 307 1.0 3.0 0.00 0.21 0.17 90 1014.5
20190523121410 59 315 1.0 3.0 0.00 0.21 0.17 90 1014.5
20190523120531 59 329 0.0 3.0 0.00 0.21 0.17 92 1014.7
20190523120510 59 326 0.0 2.0 0.00 0.21 0.17 92 1014.7
20190523115631 59 300 0.0 2.0 0.00 0.21 0.17 93 1014.6
20190523115610 59 307 0.0 2.0 0.00 0.21 0.17 93 1014.6
20190523114731 59 299 0.0 3.0 0.00 0.21 0.17 94 1014.7
20190523114710 59 288 0.0 2.0 0.00 0.21 0.17 94 1014.6
20190523113831 59 336 0.0 2.0 0.00 0.21 0.17 94 1014.6
20190523113810 59 359 0.0 1.0 0.00 0.21 0.17 94 1014.6
20190523112931 59 332 0.0 2.0 0.00 0.21 0.17 94 1014.6
20190523112909 59 335 0.0 2.0 0.00 0.21 0.17 94 1014.6
20190523112031 59 359 0.0 3.0 0.00 0.21 0.17 94 1014.5
20190523112010 59 349 0.0 1.0 0.00 0.21 0.17 94 1014.5
20190523111131 59 332 0.0 2.0 0.00 0.21 0.17 94 1014.6
20190523111110 59 296 0.0 2.0 0.00 0.21 0.17 94 1014.6
20190523110231 60 345 0.0 4.0 0.00 0.21 0.17 95 1014.2
20190523110210 60 300 0.0 2.0 0.00 0.21 0.17 95 1014.2
20190523105331 60 341 0.0 2.0 0.00 0.21 0.17 95 1014.0
20190523105309 60 343 0.0 2.0 0.00 0.21 0.17 95 1014.0
20190523104431 61 330 0.0 3.0 0.00 0.21 0.17 95 1014.0
20190523104410 61 349 0.0 3.0 0.00 0.21 0.17 95 1013.9
20190523103531 61 338 0.0 3.0 0.00 0.21 0.17 95 1013.9
20190523103509 61 343 0.0 2.0 0.00 0.21 0.17 95 1013.9
20190523102631 62 11 0.0 2.0 0.00 0.21 0.17 95 1013.9
20190523102609 62 20 0.0 2.0 0.00 0.21 0.17 95 1013.9
20190523101731 62 78 0.0 5.0 0.00 0.21 0.17 95 1013.8
20190523101710 62 37 0.0 5.0 0.00 0.21 0.17 95 1013.8
20190523100831 63 299 0.0 4.0 0.00 0.21 0.17 95 1013.7
20190523100809 63 302 0.0 2.0 0.00 0.21 0.17 95 1013.7
20190523095931 63 344 0.0 4.0 0.00 0.21 0.17 95 1013.5
20190523095910 63 341 0.0 4.0 0.00 0.21 0.17 95 1013.5
20190523095031 64 276 1.0 5.0 0.00 0.21 0.17 95 1013.2
20190523095010 64 267 1.0 5.0 0.00 0.21 0.17 95 1013.2
20190523094131 64 285 1.0 5.0 0.00 0.21 0.17 95 1013.0
20190523094110 64 291 1.0 5.0 0.00 0.21 0.17 95 1013.0
20190523093231 65 287 0.0 4.0 0.00 0.21 0.17 95 1012.9
20190523093210 65 285 0.0 4.0 0.00 0.21 0.17 96 1012.9
20190523092331 65 298 1.0 4.0 0.00 0.21 0.17 95 1012.9
20190523092309 65 300 1.0 4.0 0.00 0.21 0.17 95 1012.8
20190523091430 66 306 1.0 6.0 0.00 0.21 0.17 95 1012.6
20190523091410 66 309 1.0 4.0 0.00 0.21 0.17 95 1012.6
20190523090531 67 256 0.0 2.0 0.00 0.21 0.17 96 1012.4
20190523090510 67 238 0.0 2.0 0.00 0.21 0.17 96 1012.2
20190523085631 67 45 0.0 4.0 0.00 0.21 0.17 96 1012.1
20190523085609 67 24 0.0 3.0 0.00 0.21 0.17 96 1011.9
20190523084731 67 57 0.0 2.0 0.00 0.21 0.17 96 1011.8
20190523084710 67 48 0.0 2.0 0.00 0.21 0.17 96 1011.7
20190523083831 67 193 0.0 2.0 0.00 0.22 0.17 96 1011.7
20190523083810 67 168 0.0 2.0 0.00 0.22 0.17 96 1011.6
20190523082931 67 166 0.0 2.0 0.00 0.22 0.17 95 1011.3
20190523082910 67 161 1.0 2.0 0.00 0.22 0.17 95 1011.2
20190523082031 67 201 1.0 2.0 0.00 0.22 0.17 95 1011.1
20190523082010 67 225 1.0 2.0 0.00 0.22 0.17 95 1011.1
20190523081131 67 198 1.0 3.0 0.00 0.22 0.17 95 1011.0
20190523081110 67 187 1.0 3.0 0.00 0.22 0.17 95 1011.0
20190523080231 67 142 1.0 3.0 0.00 0.22 0.17 95 1010.9
20190523080211 67 132 1.0 3.0 0.00 0.22 0.17 95 1010.9
20190523075331 67 129 1.0 3.0 0.00 0.22 0.17 95 1010.9
20190523075310 67 124 1.0 3.0 0.00 0.22 0.17 95 1010.9
20190523074431 67 142 0.0 5.0 0.00 0.23 0.17 95 1010.9
20190523074410 67 130 1.0 1.0 0.00 0.23 0.17 95 1010.9
20190523073531 67 184 1.0 2.0 0.03 0.23 0.17 95 1010.7
20190523073510 67 187 1.0 2.0 0.03 0.23 0.17 95 1010.7
20190523072631 67 189 0.0 4.0 0.16 0.24 0.17 95 1010.2
20190523072610 67 208 0.0 2.0 0.15 0.24 0.17 95 1010.2
20190523071731 67 192 1.0 4.0 0.16 0.25 0.17 94 1010.1
20190523071710 67 162 1.0 4.0 0.16 0.25 0.17 94 1010.1
20190523070831 68 183 1.0 4.0 0.17 0.25 0.17 94 1010.4
20190523070810 68 177 1.0 4.0 0.17 0.26 0.17 94 1010.5
20190523065931 68 174 1.0 3.0 0.17 0.27 0.17 94 1010.7
20190523065910 68 148 1.0 2.0 0.17 0.27 0.17 94 1010.6
20190523065030 68 214 0.0 2.0 0.17 0.29 0.17 94 1011.2
20190523065010 68 194 0.0 2.0 0.17 0.29 0.17 94 1011.2
20190523064130 68 0 0.0 0.0 0.17 0.29 0.17 94 1011.4
20190523064110 68 0 0.0 0.0 0.17 0.29 0.17 94 1011.3
20190523063231 68 0 0.0 0.0 0.07 0.21 0.08 93 1011.8
20190523063210 68 0 0.0 0.0 0.07 0.21 0.07 93 1011.8
20190523062331 68 0 0.0 0.0 0.01 0.16 0.01 93 1011.9
20190523062309 68 0 0.0 0.0 0.01 0.17 0.01 93 1012.0
20190523061431 68 173 0.0 1.0 0.01 0.22 0.01 93 1011.0
20190523061410 68 0 0.0 0.0 0.01 0.22 0.01 93 1011.0
20190523060530 68 125 0.0 1.0 0.00 0.24 0.00 93 1010.9
20190523060510 68 84 0.0 3.0 0.00 0.24 0.00 93 1011.0
20190523055631 68 259 0.0 2.0 0.00 0.26 0.00 93 1010.3
20190523055610 68 313 0.0 3.0 0.00 0.26 0.00 93 1010.4
20190523054731 68 256 1.0 2.0 0.00 0.27 0.00 93 1010.2
20190523054710 68 199 1.0 2.0 0.00 0.27 0.00 93 1010.2
20190523053831 68 17 1.0 2.0 0.01 0.29 0.00 92 1010.0
20190523053810 68 59 1.0 3.0 0.01 0.29 0.00 92 1010.4
20190523052931 68 126 1.0 2.0 0.02 0.37 0.00 92 1010.4
20190523052910 68 111 1.0 2.0 0.02 0.37 0.00 92 1010.5
20190523052031 68 205 0.0 2.0 0.03 0.46 0.00 92 1010.8
20190523052010 68 215 0.0 2.0 0.03 0.46 0.00 92 1010.8
20190523051131 68 124 0.0 2.0 0.03 0.50 0.00 92 1011.4
20190523051110 68 132 0.0 2.0 0.03 0.50 0.00 92 1011.9
20190523050231 68 171 1.0 3.0 0.03 0.58 0.00 91 1011.9
20190523050210 68 168 1.0 3.0 0.03 0.58 0.00 91 1011.8
20190523045331 68 138 1.0 4.0 0.04 0.58 0.58 91 1012.3
20190523045310 68 151 1.0 3.0 0.04 0.58 0.58 91 1012.2
20190523044431 69 133 0.0 2.0 0.04 0.58 0.58 89 1012.5
20190523044410 69 163 0.0 1.0 0.04 0.58 0.58 89 1012.6
20190523043510 69 0 0.0 0.0 0.03 0.57 0.57 88 1012.4
20190523042631 70 176 1.0 3.0 0.02 0.56 0.56 87 1012.4
20190523042610 70 175 1.0 4.0 0.02 0.56 0.56 86 1012.5
20190523041731 70 63 1.0 3.0 0.01 0.55 0.55 85 1012.4
20190523041710 70 69 0.0 4.0 0.01 0.55 0.55 85 1012.2
20190523040831 71 128 1.0 3.0 0.01 0.55 0.55 83 1012.1
20190523040810 71 132 1.0 3.0 0.01 0.55 0.55 83 1012.1
20190523035931 72 160 1.0 4.0 0.01 0.55 0.55 81 1011.8
20190523035910 72 155 1.0 3.0 0.00 0.54 0.54 80 1011.8
20190523035031 72 172 1.0 10.0 0.00 0.54 0.54 78 1011.8
20190523035010 72 168 1.0 3.0 0.00 0.54 0.54 77 1011.8
20190523034131 72 135 1.0 5.0 0.00 0.54 0.54 76 1011.2
20190523034110 72 146 1.0 6.0 0.00 0.54 0.54 76 1011.2
20190523033231 73 130 1.0 6.0 0.00 0.54 0.54 76 1011.1
20190523033210 73 134 1.0 4.0 0.00 0.54 0.54 76 1011.0
20190523032331 73 140 1.0 6.0 0.00 0.54 0.54 76 1010.9
20190523032310 73 134 1.0 4.0 0.00 0.54 0.54 75 1010.9
20190523031431 73 159 1.0 3.0 0.00 0.54 0.54 75 1011.0
20190523031410 73 178 1.0 3.0 0.00 0.54 0.54 75 1011.0
20190523030531 73 119 1.0 3.0 0.00 0.54 0.54 75 1011.1
20190523030510 73 118 1.0 3.0 0.00 0.54 0.54 75 1011.1
20190523025610 73 149 2.0 5.0 0.00 0.54 0.54 74 1011.0
20190523024731 73 118 1.0 3.0 0.00 0.54 0.54 74 1010.9
20190523024710 73 123 1.0 3.0 0.00 0.54 0.54 74 1010.9
20190523023831 73 158 1.0 4.0 0.00 0.54 0.54 74 1010.7
20190523023810 73 148 1.0 4.0 0.00 0.54 0.54 74 1010.7
20190523022931 74 130 1.0 3.0 0.00 0.54 0.54 73 1010.9
20190523022910 74 90 1.0 2.0 0.00 0.54 0.54 72 1010.9
20190523022031 74 87 1.0 5.0 0.00 0.54 0.54 72 1010.7
20190523022010 74 92 1.0 5.0 0.00 0.54 0.54 72 1010.7
20190523021131 74 119 1.0 4.0 0.00 0.54 0.54 71 1010.6
20190523021110 74 126 1.0 4.0 0.00 0.54 0.54 71 1010.6
20190523020231 74 129 1.0 4.0 0.00 0.54 0.54 70 1010.5
20190523020210 74 145 1.0 4.0 0.00 0.54 0.54 70 1010.4
20190523015331 74 167 1.0 3.0 0.00 0.54 0.54 68 1010.4
20190523015310 74 176 1.0 2.0 0.00 0.54 0.54 68 1010.4
20190523014431 75 139 1.0 3.0 0.00 0.54 0.54 66 1010.2
20190523014410 75 123 1.0 3.0 0.00 0.54 0.54 66 1010.2
20190523013531 75 142 1.0 5.0 0.00 0.54 0.54 64 1010.2
20190523013510 75 154 1.0 4.0 0.00 0.54 0.54 64 1010.1
20190523012610 76 142 1.0 7.0 0.00 0.54 0.54 63 1010.2
20190523011731 76 159 1.0 3.0 0.00 0.54 0.54 63 1010.3
20190523011710 76 165 1.0 2.0 0.00 0.54 0.54 63 1010.3
20190523010831 76 162 1.0 6.0 0.00 0.54 0.54 63 1010.4
20190523010810 76 168 1.0 3.0 0.00 0.54 0.54 62 1010.4
20190523005931 76 131 1.0 5.0 0.00 0.54 0.54 61 1010.3
20190523005910 76 118 1.0 4.0 0.00 0.54 0.54 61 1010.5
20190523005031 77 155 1.0 3.0 0.00 0.54 0.54 60 1010.5
20190523005010 77 143 1.0 3.0 0.00 0.54 0.54 60 1010.5
20190523004132 77 137 1.0 4.0 0.00 0.54 0.54 59 1010.6
20190523004110 77 125 1.0 4.0 0.00 0.54 0.54 59 1010.6
20190523003231 77 129 1.0 3.0 0.00 0.54 0.54 58 1010.5
20190523003210 77 132 2.0 3.0 0.00 0.54 0.54 58 1010.5
20190523002331 77 151 2.0 5.0 0.00 0.54 0.54 58 1010.4
20190523002310 77 162 2.0 5.0 0.00 0.54 0.54 58 1010.2
20190523001431 78 134 2.0 5.0 0.00 0.54 0.54 57 1010.2
20190523001410 78 127 1.0 5.0 0.00 0.54 0.54 58 1010.2
20190523000531 78 133 2.0 5.0 0.00 0.54 0.54 57 1010.4
20190523000510 78 123 2.0 4.0 0.00 0.54 0.54 56 1010.5
20190522235631 79 128 1.0 6.0 0.00 0.54 0.54 55 1010.4
20190522235610 79 119 1.0 6.0 0.00 0.54 0.54 55 1010.3
20190522234731 79 154 1.0 7.0 0.00 0.54 0.54 54 1010.3
20190522234710 79 147 2.0 7.0 0.00 0.54 0.54 54 1010.3
20190522233831 79 144 2.0 6.0 0.00 0.54 0.54 53 1010.5
20190522233810 79 138 2.0 6.0 0.00 0.54 0.54 53 1010.5
20190522232931 79 152 2.0 6.0 0.00 0.54 0.54 51 1010.5
20190522232910 80 145 2.0 6.0 0.00 0.54 0.54 51 1010.5
20190522232031 80 136 2.0 7.0 0.00 0.54 0.54 51 1010.6
20190522232010 80 126 2.0 6.0 0.00 0.54 0.54 51 1010.6
20190522231131 80 146 2.0 6.0 0.00 0.54 0.54 51 1010.4
20190522231110 80 147 2.0 5.0 0.00 0.54 0.54 51 1010.5
20190522230231 80 147 2.0 5.0 0.00 0.54 0.54 50 1010.3
20190522230210 80 147 2.0 5.0 0.00 0.54 0.54 50 1010.4